sat.trackr.live / text

‹ back to catalog

STARLINK-30129

NORAD 56689 · 2023-067B

PAYLOAD ACTIVE UNKNOWN

§ Identity

Operator
Country
US
Launch date
2023-05-19
Launch site
AFETR
Launch vehicle
Mass (kg)
RCS (m²)

Purposes: comms

External: N2YO · Heavens-Above · Gunter

§ Orbital elements

Epoch: 2026-09-20T08:48:34.246656Z

Period
94.27 min
Inclination
43.0026°
Eccentricity
0.0001476
Mean motion
15.27574230 rev/d
Perigee alt
482.1 km
Apogee alt
484.1 km
Semi-major
6,861.2 km
B*
-2.9870e-5
RAAN
261.8021°
Arg perigee
265.2173°
Mean anomaly
94.8510°
Rev number
18,535

§ Raw data

STARLINK-301291 56689U 23067B   26263.36706304 -.00001084  00000+0 -29870-4 0  99942 56689  43.0026 261.8021 0001476 265.2173  94.8510 15.27574230185350

JSON: /api/v1/satellites/56689 · /tle

For live sub-satellite position, see the globe view (requires WebGL).

§ Visibility from observer

Set your observer location to see the next 7 days of passes ≥ 10°. The values pass through the URL so the page stays shareable.

No JS? Fill the form by hand. The geolocation button needs JavaScript.